Hourly Weather Siempang

Today, 26 January, Tuesday

Time Temperature Precipitation Wind Pressure Humidity
00:00 +26°C° 0 mm 1 mps 752 mmHg 62%
01:00 +22°C° 0 mm 0 mps 752 mmHg 69%
02:00 +22°C° 0 mm 0 mps 752 mmHg 72%
03:00 +21°C° 0 mm 0 mps 752 mmHg 76%
04:00 +20°C° 0 mm 0 mps 752 mmHg 79%
05:00 +20°C° 0 mm 0 mps 752 mmHg 79%
06:00 +20°C° 0 mm 0 mps 752 mmHg 80%
07:00 +20°C° 0 mm 0 mps 753 mmHg 81%
08:00 +24°C° 0 mm 0 mps 753 mmHg 70%
09:00 +29°C° 0 mm 1 mps 753 mmHg 59%
10:00 +32°C° 0 mm 1 mps 753 mmHg 48%
11:00 +34°C° 0 mm 1 mps 752 mmHg 43%
12:00 +36°C° 0 mm 1 mps 751 mmHg 38%
13:00 +39°C° 0 mm 1 mps 750 mmHg 33%
14:00 +37°C° 0 mm 1 mps 750 mmHg 33%
15:00 +37°C° 0 mm 1 mps 749 mmHg 33%
16:00 +37°C° 0 mm 1 mps 749 mmHg 34%
17:00 +34°C° 0 mm 1 mps 749 mmHg 39%
18:00 +32°C° 0 mm 1 mps 750 mmHg 44%
19:00 +30°C° 0 mm 1 mps 750 mmHg 50%
20:00 +28°C° 0 mm 1 mps 750 mmHg 52%
21:00 +27°C° 0 mm 1 mps 751 mmHg 55%
22:00 +26°C° 0 mm 2 mps 752 mmHg 57%
23:00 +25°C° 0 mm 1 mps 752 mmHg 63%

Tomorrow, 27 January, Wednesday

Time Temperature Precipitation Wind Pressure Humidity
00:00 +24°C° 0 mm 1 mps 752 mmHg 68%
01:00 +23°C° 0 mm 1 mps 752 mmHg 74%
02:00 +22°C° 0 mm 1 mps 752 mmHg 77%
03:00 +22°C° 0 mm 1 mps 752 mmHg 80%
04:00 +21°C° 0 mm 1 mps 752 mmHg 82%
05:00 +21°C° 0 mm 1 mps 752 mmHg 82%
06:00 +21°C° 0 mm 1 mps 753 mmHg 82%
07:00 +21°C° 0 mm 1 mps 753 mmHg 82%
08:00 +25°C° 0 mm 1 mps 753 mmHg 70%
09:00 +28°C° 0 mm 1 mps 753 mmHg 58%
10:00 +31°C° 0 mm 1 mps 753 mmHg 46%
11:00 +33°C° 0 mm 1 mps 752 mmHg 41%
12:00 +35°C° 0 mm 1 mps 752 mmHg 37%
13:00 +39°C° 0 mm 1 mps 751 mmHg 32%
14:00 +37°C° 0 mm 1 mps 750 mmHg 32%
15:00 +37°C° 0 mm 1 mps 749 mmHg 33%
16:00 +36°C° 0 mm 1 mps 749 mmHg 33%
17:00 +34°C° 0 mm 1 mps 749 mmHg 39%
18:00 +29°C° 0 mm 0 mps 750 mmHg 45%
19:00 +27°C° 0 mm 0 mps 750 mmHg 51%
20:00 +26°C° 0 mm 0 mps 751 mmHg 53%
21:00 +27°C° 0 mm 1 mps 751 mmHg 55%
22:00 +27°C° 0 mm 1 mps 752 mmHg 57%
23:00 +26°C° 0 mm 1 mps 752 mmHg 62%

Day after tomorrow, 28 January, Thursday

Time Temperature Precipitation Wind Pressure Humidity
00:00 +25°C° 0 mm 1 mps 752 mmHg 67%
01:00 +24°C° 0 mm 1 mps 752 mmHg 72%
02:00 +23°C° 0 mm 1 mps 752 mmHg 76%
03:00 +22°C° 0 mm 1 mps 752 mmHg 80%
04:00 +22°C° 0 mm 1 mps 752 mmHg 83%
05:00 +22°C° 0 mm 1 mps 753 mmHg 83%
06:00 +20°C° 0 mm 0 mps 753 mmHg 83%
07:00 +20°C° 0 mm 0 mps 754 mmHg 83%
08:00 +23°C° 0 mm 0 mps 754 mmHg 71%
09:00 +28°C° 0 mm 1 mps 754 mmHg 59%
10:00 +31°C° 0 mm 1 mps 754 mmHg 48%
11:00 +33°C° 0 mm 1 mps 754 mmHg 43%
12:00 +35°C° 0 mm 1 mps 753 mmHg 38%
13:00 +39°C° 0 mm 1 mps 752 mmHg 33%
14:00 +37°C° 0 mm 1 mps 751 mmHg 32%
15:00 +37°C° 0 mm 1 mps 751 mmHg 31%
16:00 +37°C° 0 mm 1 mps 750 mmHg 31%
17:00 +35°C° 0 mm 1 mps 751 mmHg 34%
18:00 +34°C° 0 mm 2 mps 752 mmHg 37%
19:00 +31°C° 0 mm 3 mps 752 mmHg 40%
20:00 +29°C° 0 mm 2 mps 753 mmHg 46%
21:00 +27°C° 0 mm 2 mps 753 mmHg 51%
22:00 +25°C° 0 mm 2 mps 754 mmHg 57%
23:00 +24°C° 0 mm 1 mps 754 mmHg 61%

29 January, Friday

Time Temperature Precipitation Wind Pressure Humidity
00:00 +23°C° 0 mm 1 mps 754 mmHg 64%
01:00 +22°C° 0 mm 1 mps 754 mmHg 68%
02:00 +21°C° 0 mm 1 mps 754 mmHg 70%
03:00 +21°C° 0 mm 1 mps 754 mmHg 73%
04:00 +20°C° 0 mm 1 mps 754 mmHg 75%
05:00 +20°C° 0 mm 1 mps 754 mmHg 75%
06:00 +21°C° 0 mm 1 mps 755 mmHg 74%
07:00 +21°C° 0 mm 1 mps 755 mmHg 73%
08:00 +24°C° 0 mm 1 mps 755 mmHg 62%
09:00 +27°C° 0 mm 1 mps 755 mmHg 52%
10:00 +31°C° 0 mm 1 mps 756 mmHg 41%
11:00 +32°C° 0 mm 1 mps 755 mmHg 37%
12:00 +34°C° 0 mm 1 mps 754 mmHg 33%
13:00 +36°C° 0 mm 1 mps 753 mmHg 29%
14:00 +36°C° 0 mm 1 mps 753 mmHg 29%
15:00 +35°C° 0 mm 1 mps 752 mmHg 29%
16:00 +35°C° 0 mm 1 mps 751 mmHg 29%
17:00 +34°C° 0 mm 2 mps 752 mmHg 34%
18:00 +30°C° 0 mm 2 mps 752 mmHg 40%
19:00 +28°C° 0 mm 2 mps 753 mmHg 45%
20:00 +26°C° 0 mm 2 mps 753 mmHg 51%
21:00 +25°C° 0 mm 1 mps 754 mmHg 56%
22:00 +24°C° 0 mm 1 mps 755 mmHg 61%
23:00 +23°C° 0 mm 1 mps 755 mmHg 64%

30 January, Saturday

Time Temperature Precipitation Wind Pressure Humidity
00:00 +22°C° 0 mm 1 mps 755 mmHg 67%
01:00 +19°C° 0 mm 0 mps 754 mmHg 71%
02:00 +18°C° 0 mm 0 mps 754 mmHg 73%
03:00 +20°C° 0 mm 1 mps 754 mmHg 75%
04:00 +19°C° 0 mm 1 mps 754 mmHg 78%
05:00 +19°C° 0 mm 1 mps 754 mmHg 77%
06:00 +19°C° 0 mm 1 mps 755 mmHg 77%
07:00 +17°C° 0 mm 0 mps 755 mmHg 76%
08:00 +23°C° 0 mm 1 mps 755 mmHg 64%
09:00 +27°C° 0 mm 1 mps 756 mmHg 52%
10:00 +30°C° 0 mm 1 mps 756 mmHg 40%
11:00 +32°C° 0 mm 1 mps 755 mmHg 36%
12:00 +34°C° 0 mm 1 mps 754 mmHg 31%
13:00 +36°C° 0 mm 1 mps 753 mmHg 27%
14:00 +36°C° 0 mm 1 mps 753 mmHg 27%
15:00 +35°C° 0 mm 1 mps 752 mmHg 27%
16:00 +33°C° 0 mm 0 mps 751 mmHg 28%
17:00 +32°C° 0 mm 1 mps 752 mmHg 34%
18:00 +30°C° 0 mm 1 mps 752 mmHg 40%
19:00 +27°C° 0 mm 1 mps 753 mmHg 46%
20:00 +26°C° 0 mm 1 mps 753 mmHg 52%
21:00 +25°C° 0 mm 1 mps 754 mmHg 58%
22:00 +24°C° 0 mm 1 mps 754 mmHg 64%
23:00 +23°C° 0 mm 1 mps 754 mmHg 68%

31 January, Sunday

Time Temperature Precipitation Wind Pressure Humidity
00:00 +22°C° 0 mm 1 mps 754 mmHg 71%
01:00 +21°C° 0 mm 1 mps 754 mmHg 75%
02:00 +19°C° 0 mm 0 mps 754 mmHg 78%
03:00 +18°C° 0 mm 0 mps 754 mmHg 81%
04:00 +17°C° 0 mm 0 mps 754 mmHg 83%
05:00 +17°C° 0 mm 0 mps 754 mmHg 83%
06:00 +17°C° 0 mm 0 mps 755 mmHg 83%
07:00 +18°C° 0 mm 0 mps 755 mmHg 83%
08:00 +23°C° 0 mm 1 mps 755 mmHg 70%
09:00 +26°C° 0 mm 1 mps 756 mmHg 58%
10:00 +29°C° 0 mm 1 mps 756 mmHg 45%
11:00 +31°C° 0 mm 1 mps 755 mmHg 40%
12:00 +34°C° 0 mm 1 mps 754 mmHg 34%
13:00 +36°C° 0 mm 1 mps 753 mmHg 29%
14:00 +36°C° 0 mm 1 mps 752 mmHg 29%
15:00 +35°C° 0 mm 1 mps 752 mmHg 28%
16:00 +35°C° 0 mm 1 mps 751 mmHg 28%
17:00 +32°C° 0 mm 1 mps 752 mmHg 34%
18:00 +30°C° 0 mm 1 mps 752 mmHg 40%
19:00 +25°C° 0 mm 0 mps 753 mmHg 46%
20:00 +26°C° 0 mm 1 mps 753 mmHg 52%
21:00 +25°C° 0 mm 1 mps 754 mmHg 57%
22:00 +24°C° 0 mm 1 mps 754 mmHg 63%
23:00 +23°C° 0 mm 1 mps 754 mmHg 67%
Show more